Home   Weather   Navi Mumbai   Past weeks

Flag for India Past Weather in Navi Mumbai, Maharashtra, India — Yesterday and Last 2 Weeks

Now
90 °F

Clear.


Feels Like: 98 °F
Forecast: 75 / 96 °F
Wind: 13 mph from Northwest

Location: Mumbai / Santacruz

Current Time: Apr 29, 2017 at 5:02:05 pm

Latest Report: Apr 29, 2017 at 4:30 pm


Visibility: 4 mi

Pressure: 29.80 "Hg

Humidity: 59%

Dew Point: 73 °F

Location of Navi MumbaiLocation

Past Weather in Navi Mumbai — Graph

°F

Navi Mumbai Temperature Yesterday

Maximum temperature yesterday: 93 °F (at 11:00 am)
Minimum temperature yesterday: 81 °F (at 4:00 am)
Average temperature yesterday: 86 °F

High & Low Weather Summary for the Past Weeks

 TemperatureHumidityPressure
High97 °F (Apr 16, 3:30 pm)89% (Apr 16, 4:00 am)29.92 "Hg (Apr 16, 4:00 am)
Low81 °F (Apr 16, 4:00 am)36% (Apr 16, 6:00 pm)29.68 "Hg (Apr 15, 3:30 pm)
Average86 °F69%29.80 "Hg
* Reported Apr 14 3:30 pm — Apr 29 3:30 pm, Navi Mumbai, Weather by CustomWeather, © 2017

Note: Actual official high and low records may vary slightly from our data, if they occured in-between our weather recording intervals... More about our weather records

Advertising

Navi Mumbai Weather History for the Previous 24 Hours

Scroll right to see more
 ConditionsComfort  
Time TempWeatherWind HumidityBarometerVisibility
3:30 pm
Sat, Apr 29
90 °FClear.14 mph55%29.83 "Hg4 mi
3:00 pm90 °FClear.13 mph55%29.83 "Hg4 mi
2:30 pm90 °FClear.13 mph59%29.83 "Hg3 mi
2:00 pm90 °FClear.9 mph59%29.86 "Hg2 mi
1:00 pm90 °FHaze.8 mph63%29.89 "Hg2 mi
12:30 pm90 °FClear.8 mph63%29.89 "Hg2 mi
12:00 pm91 °FClear.9 mph56%29.89 "Hg2 mi
11:30 am91 °FClear.8 mph56%29.89 "Hg2 mi
11:00 am90 °FClear.7 mph55%29.92 "Hg2 mi
10:30 am90 °FPassing clouds.3 mph55%29.92 "Hg2 mi
10:00 am90 °FScattered clouds.7 mph55%29.92 "Hg2 mi
9:30 am88 °FScattered clouds.3 mph59%29.92 "Hg2 mi
9:00 am86 °FScattered clouds.5 mph66%29.92 "Hg2 mi
8:30 am84 °FScattered clouds.3 mph70%29.92 "Hg2 mi
8:00 am84 °FScattered clouds.5 mph74%29.89 "Hg2 mi
7:30 am82 °FScattered clouds.5 mph79%29.89 "Hg2 mi
7:00 am81 °FScattered clouds.6 mph84%29.86 "Hg2 mi
6:30 am81 °FHaze.7 mph84%29.86 "Hg2 mi
6:00 am81 °FHaze.3 mph79%29.83 "Hg2 mi
5:30 am81 °FHaze.3 mph79%29.83 "Hg2 mi
5:00 am81 °FHaze.5 mph79%29.80 "Hg2 mi
4:30 am82 °FHaze.3 mph79%29.80 "Hg2 mi
4:00 am82 °FHaze.3 mph79%29.80 "Hg2 mi
3:30 am82 °FHaze.6 mph79%29.80 "Hg2 mi
3:00 am82 °FHaze.3 mph79%29.80 "Hg2 mi
2:30 am82 °FHaze.3 mph74%29.80 "Hg2 mi
2:00 am82 °FHaze.No wind79%29.80 "Hg2 mi
1:30 am82 °FHaze.3 mph79%29.83 "Hg2 mi
1:00 am84 °FHaze.5 mph74%29.83 "Hg2 mi
12:30 am84 °FHaze.6 mph74%29.83 "Hg2 mi
12:00 am84 °FHaze.3 mph74%29.83 "Hg2 mi
11:30 pm
Fri, Apr 28
84 °FHaze.5 mph74%29.83 "Hg2 mi
11:00 pm84 °FHaze.6 mph74%29.83 "Hg2 mi
10:30 pm84 °FHaze.6 mph70%29.83 "Hg2 mi
10:00 pm84 °FHaze.5 mph66%29.83 "Hg2 mi
9:30 pm84 °FHaze.7 mph66%29.83 "Hg2 mi
9:00 pm84 °FHaze.9 mph70%29.80 "Hg2 mi
8:30 pm84 °FHaze.8 mph70%29.80 "Hg2 mi
8:00 pm86 °FHaze.8 mph66%29.80 "Hg2 mi
7:30 pm84 °FHaze.9 mph74%29.80 "Hg2 mi
7:00 pm86 °FHaze.8 mph66%29.77 "Hg2 mi
6:30 pm88 °FHaze.12 mph62%29.77 "Hg3 mi
6:00 pm88 °FHaze.13 mph62%29.77 "Hg3 mi
5:30 pm88 °FHaze.8 mph66%29.77 "Hg3 mi
5:00 pm88 °FHaze.9 mph66%29.77 "Hg3 mi
Weather by CustomWeather, © 2017

See weather overviewHow to use our weather pages